Flag for China Weather past 2 weeks in Lanchow, Gansu, China

Now
16 °F

Clear.


Feels Like: 10 °F
Forecast: 4 / 33 °F
Wind: 3 mph from North

Location: Lanzhou / Zhongchuan

Current Time: Dec 23, 2014 at 12:40:18 AM

Latest Report: Dec 23, 2014 at 12:00 AM


Visibility: 2 mi

Pressure: 30.15 "Hg

Humidity: 62%

Dew point: 5 °F

Location of LanchowLocation

Historic Weather in Lanchow — Graph

°F

Lanchow temperature yesterday

Maximum temperature yesterday: 30 °F (at 4:00 PM)
Minimum temperature yesterday: 3 °F (at 6:00 AM)
Average temperature yesterday: 16 °F

Past Weeks' High & Low Weather Summary

 TemperatureHumidityPressure
High36 °F (Dec 8, 2:00 PM)85% (Dec 9, 10:00 PM)30.60 "Hg (Dec 9, 10:00 PM)
Low-4 °F (Dec 21, 8:00 AM)18% (Dec 14, 4:00 PM)29.86 "Hg (Dec 8, 2:00 PM)
Average16 °F55%30.29 "Hg
* Reported Dec 7 11:00 PM — Dec 22 11:00 PM, Lanchow, Weather by CustomWeather, © 2014

Note: Actual official high and low records may vary slightly from our data, if they occured in-between our weather recording intervals... More about our weather records

Advertising

Lanchow weather history for previous 24 hours

 ConditionsComfort  
Time TempWeatherWind HumidityBarometerVisibility
11:00 PM
Dec 22
19 °FClear.No wind58%30.15 "Hg2 mi
10:00 PM23 °FClear.1 mph54%30.15 "Hg2 mi
9:00 PM21 °FClear.1 mph54%30.15 "Hg2 mi
8:00 PM23 °FClear.No wind50%30.12 "Hg2 mi
7:00 PM27 °FPassing clouds.1 mph46%30.09 "Hg2 mi
6:00 PM27 °FScattered clouds.3 mph46%30.07 "Hg3 mi
5:00 PM28 °FScattered clouds.1 mph43%30.04 "Hg3 mi
4:00 PM30 °FScattered clouds.1 mph40%30.01 "Hg3 mi
3:00 PM28 °FClear.1 mph43%30.01 "Hg3 mi
2:00 PM28 °FClear.3 mph43%30.01 "Hg3 mi
1:00 PM28 °FClear.1 mph43%30.04 "Hg3 mi
12:00 PM25 °FClear.No wind46%30.07 "Hg4 mi
11:00 AM21 °FClear.No wind54%30.09 "Hg4 mi
10:00 AM14 °FClear.3 mph62%30.09 "Hg3 mi
9:00 AM7 °FClear.6 mph72%30.07 "Hg3 mi
8:00 AM3 °FClear.6 mph72%30.07 "Hg3 mi
7:00 AM3 °FClear.8 mph72%30.07 "Hg4 mi
6:00 AM3 °FClear.1 mph72%30.07 "Hg4 mi
5:00 AM5 °FClear.3 mph66%30.07 "Hg4 mi
4:00 AM5 °FClear.3 mph72%30.09 "Hg4 mi
3:00 AM5 °FClear.6 mph72%30.12 "Hg4 mi
2:00 AM5 °FClear.3 mph72%30.12 "Hg4 mi
1:00 AM7 °FClear.1 mph66%30.15 "Hg4 mi
12:00 AM9 °FClear.3 mph66%30.18 "Hg3 mi
Weather by CustomWeather, © 2014

See weather overviewHow to use our weather pages